Location: *
(43.0409°N, 0.1694°E)
Time: 22:15:40
(UTC+00:00)

H-2A R/B - Pass Details

Date: 03 October 2023
Orbit: 731 x 835 km, 98.2° (Epoch: 05 December)

Event Time Altitude Azimuth Distance (km) Brightness Sun altitude
Rises 04:08:22 0° 23° (NNE) 3,395 5.9 -20.8°
Reaches altitude 10° 04:11:02 10° 33° (NNE) 2,454 5.3 -20.3°
Maximum altitude 04:15:49 31° 95° (E) 1,429 4.0 -19.4°
Drops below altitude 10° 04:20:31 10° 156° (SSE) 2,410 4.7 -18.6°
Sets 04:23:06 0° 167° (SSE) 3,324 5.3 -18.1°
